Regional Weather Roundup
Issued by NWS

Home | Current Version | Previous Version | Graphics & Text | Print | Product List | Glossary On
Versions: 1 2 3 4 5 6 7 8 9 10 11 12 13 14 15 16 17 18 19 20 21 22 23 24 25 26 27 28 29 30 31 32 33 34 35 36 37 38 39 40 41 42 43 44 45 46 47 48 49 50
000
ASUS43 KLSX 251307
RWRMO
WEATHER SUMMARY FOR MISSOURI
NATIONAL WEATHER SERVICE SPRINGFIELD MO
800 AM CDT TUE APR 25 2017

NOTE: "FAIR" INDICATES FEW OR NO CLOUDS BELOW 12,000 FEET WITH NO
       SIGNIFICANT WEATHER AND/OR OBSTRUCTIONS TO VISIBILITY.
       CURRENT SKY AND/OR WEATHER CONDITIONS ARE NOT AVAILABLE FOR
       CHILLICOTHE AND FARMINGTON.

MOZ001>031-035>038-043-044-053-054-251400-
...NORTHERN AND WESTERN MISSOURI...

CITY           SKY/WX    TMP DP  RH WIND       PRES   REMARKS
KANSAS CTY INT CLOUDY    61  47  59 SE14      29.47F
KANSAS C DTWN  MOSUNNY   61  47  59 E7        29.48F
LEE`S SUMMIT   CLOUDY    58  45  62 E6        29.50F
ST JOSEPH      CLOUDY    61  51  70 SE5       29.47F
CHILLICOTHE      N/A     57  42  57 S5        29.55S
KIRKSVILLE     CLOUDY    57  44  62 SE7       29.58F

$$
MOZ066>068-077>081-088>096-101>105-251400-
...SOUTHWEST MISSOURI...

CITY           SKY/WX    TMP DP  RH WIND       PRES   REMARKS
SPRINGFIELD    CLOUDY    59  44  57 SE17G24   29.56F
JOPLIN         MOSUNNY   61  48  62 SE10      29.51R
BRANSON        PTSUNNY   55  45  67 SE8       29.63F

$$
MOZ032>034-039>042-045>050-055>058-069>072-251400-
...CENTRAL MISSOURI...

CITY           SKY/WX    TMP DP  RH WIND       PRES   REMARKS
COLUMBIA       CLOUDY    57  46  66 SE8       29.62S
JEFFERSON CITY CLOUDY    60  45  57 E3        29.63R
ROLLA          CLOUDY    59  46  62 S13       29.63R
SEDALIA        PTSUNNY   58  45  62 SE10      29.56F
WHITEMAN AFB   PTSUNNY   57  46  67 SE8       29.52F
OSAGE BEACH    CLOUDY    58  44  60 S9        29.60F

$$
MOZ051-052-059>065-251400-
...EAST CENTRAL MISSOURI...

CITY           SKY/WX    TMP DP  RH WIND       PRES   REMARKS
ST LOUIS INTL  PTSUNNY   63  50  62 S8        29.68S
SPIRIT OF STL  MOSUNNY   61  51  70 VRB6      29.66S
ST CHARLES     MOSUNNY   60  51  72 E6        29.67S

$$
MOZ072>076-082>087-097>100-106>115-251400-
...SOUTH CENTRAL AND SOUTHEAST MISSOURI...

CITY           SKY/WX    TMP DP  RH WIND       PRES   REMARKS
CAPE GIRARDEAU SUNNY     59  55  87 S7        29.73S
FARMINGTON     SUNNY     59  53  80 MISG      29.70F
POPLAR BLUFF   SUNNY     58  56  93 SE7       29.72S
WEST PLAINS    SUNNY     56  46  69 S7        29.68S

$$




USA.gov is the U.S. government's official web portal to all federal, state and local government web resources and services.